Location: Budapest
(47.4979°N, 19.0402°E)
Time: 12:18:24
(UTC+02:00)

STARLINK-1342 - Pass Details

Date: 19 June 2020
Orbit: 548 x 551 km, 53.0° (Epoch: 11 August)

Event Time Altitude Azimuth Distance (km) Brightness Sun altitude
Rises 22:35:52 0° 297° (WNW) 2,719 8.2 -13.3°
Reaches altitude 10° 22:38:08 10° 293° (WNW) 1,823 7.1 -13.5°
Maximum altitude 22:42:11 55° 215° (SW) 663 3.8 -13.8°
Enters shadow 22:44:25 24° 147° (SSE) 1,148 4.6 -14.0°
